Year,Month,Day,Hour,Minute,Value (Times are PST for temperature in C)
2016,04,18,00,00,10.60
2016,04,18,00,01,10.60
2016,04,18,00,02,10.60
2016,04,18,00,03,10.60
2016,04,18,00,04,10.60
2016,04,18,00,05,10.60
2016,04,18,00,06,10.60
2016,04,18,00,07,10.60
2016,04,18,00,08,10.60
2016,04,18,00,09,10.60
2016,04,18,00,10,10.60
2016,04,18,00,11,10.50
2016,04,18,00,12,10.50
2016,04,18,00,13,10.50
2016,04,18,00,14,10.50
2016,04,18,00,15,10.50
2016,04,18,00,16,10.50
2016,04,18,00,17,10.50
2016,04,18,00,18,10.40
2016,04,18,00,19,10.40
2016,04,18,00,20,10.40
2016,04,18,00,21,10.40
2016,04,18,00,22,10.40
2016,04,18,00,23,10.40
2016,04,18,00,24,10.40
2016,04,18,00,25,10.40
2016,04,18,00,26,10.40
2016,04,18,00,27,10.40
2016,04,18,00,28,10.40
2016,04,18,00,29,10.30
2016,04,18,00,30,10.30
2016,04,18,00,31,10.30
2016,04,18,00,32,10.30
2016,04,18,00,33,10.30
2016,04,18,00,34,10.30
2016,04,18,00,35,10.30
2016,04,18,00,36,10.30
2016,04,18,00,37,10.30
2016,04,18,00,38,10.30
2016,04,18,00,39,10.30
2016,04,18,00,40,10.30
2016,04,18,00,41,10.30
2016,04,18,00,42,10.30
2016,04,18,00,43,10.30
2016,04,18,00,44,10.30
2016,04,18,00,45,10.30
2016,04,18,00,46,10.30
2016,04,18,00,47,10.20
2016,04,18,00,48,10.20
2016,04,18,00,49,10.20
2016,04,18,00,50,10.20
2016,04,18,00,51,10.20
2016,04,18,00,52,10.20
2016,04,18,00,53,10.20
2016,04,18,00,54,10.20
2016,04,18,00,55,10.20
2016,04,18,00,56,10.20
2016,04,18,00,57,10.20
2016,04,18,00,58,10.10
2016,04,18,00,59,10.10
2016,04,18,01,00,10.10
2016,04,18,01,01,10.10
2016,04,18,01,02,10.10
2016,04,18,01,03,10.10
2016,04,18,01,04,10.10
2016,04,18,01,05,10.10
2016,04,18,01,06,10.10
2016,04,18,01,07,10.10
2016,04,18,01,08,10.10
2016,04,18,01,09,10.10
2016,04,18,01,10,10.10
2016,04,18,01,11,10.00
2016,04,18,01,12,10.00
2016,04,18,01,13,10.00
2016,04,18,01,14,10.00
2016,04,18,01,15,10.00
2016,04,18,01,16,10.00
2016,04,18,01,17,10.00
2016,04,18,01,18,9.90
2016,04,18,01,19,9.90
2016,04,18,01,20,9.90
2016,04,18,01,21,9.90
2016,04,18,01,22,9.90
2016,04,18,01,23,9.90
2016,04,18,01,24,9.90
2016,04,18,01,25,9.90
2016,04,18,01,26,9.90
2016,04,18,01,27,9.90
2016,04,18,01,28,9.90
2016,04,18,01,29,9.90
2016,04,18,01,30,9.90
2016,04,18,01,31,9.90
2016,04,18,01,32,9.90
2016,04,18,01,33,9.90
2016,04,18,01,34,9.90
2016,04,18,01,35,9.90
2016,04,18,01,36,9.90
2016,04,18,01,37,9.90
2016,04,18,01,38,9.90
2016,04,18,01,39,9.80
2016,04,18,01,40,9.80
2016,04,18,01,41,9.80
2016,04,18,01,42,9.80
2016,04,18,01,43,9.80
2016,04,18,01,44,9.80
2016,04,18,01,45,9.80
2016,04,18,01,46,9.80
2016,04,18,01,47,9.80
2016,04,18,01,48,9.80
2016,04,18,01,49,9.80
2016,04,18,01,50,9.80
2016,04,18,01,51,9.70
2016,04,18,01,52,9.70
2016,04,18,01,53,9.70
2016,04,18,01,54,9.70
2016,04,18,01,55,9.70
2016,04,18,01,56,9.70
2016,04,18,01,57,9.60
2016,04,18,01,58,9.60
2016,04,18,01,59,9.60
2016,04,18,02,00,9.60
2016,04,18,02,01,9.60
2016,04,18,02,02,9.60
2016,04,18,02,03,9.60
2016,04,18,02,04,9.60
2016,04,18,02,05,9.50
2016,04,18,02,06,9.50
2016,04,18,02,07,9.50
2016,04,18,02,08,9.40
2016,04,18,02,09,9.40
2016,04,18,02,10,9.40
2016,04,18,02,11,9.40
2016,04,18,02,12,9.40
2016,04,18,02,13,9.30
2016,04,18,02,14,9.30
2016,04,18,02,15,9.30
2016,04,18,02,16,9.30
2016,04,18,02,17,9.30
2016,04,18,02,18,9.30
2016,04,18,02,19,9.30
2016,04,18,02,20,9.20
2016,04,18,02,21,9.20
2016,04,18,02,22,9.20
2016,04,18,02,23,9.20
2016,04,18,02,24,9.20
2016,04,18,02,25,9.20
2016,04,18,02,26,9.20
2016,04,18,02,27,9.20
2016,04,18,02,28,9.20
2016,04,18,02,29,9.20
2016,04,18,02,30,9.20
2016,04,18,02,31,9.20
2016,04,18,02,32,9.20
2016,04,18,02,33,9.20
2016,04,18,02,34,9.20
2016,04,18,02,35,9.10
2016,04,18,02,36,9.10
2016,04,18,02,37,9.10
2016,04,18,02,38,9.10
2016,04,18,02,39,9.10
2016,04,18,02,40,9.10
2016,04,18,02,41,9.10
2016,04,18,02,42,9.10
2016,04,18,02,43,9.00
2016,04,18,02,44,9.00
2016,04,18,02,45,9.00
2016,04,18,02,46,9.00
2016,04,18,02,47,8.90
2016,04,18,02,48,8.90
2016,04,18,02,49,8.90
2016,04,18,02,50,8.90
2016,04,18,02,51,8.90
2016,04,18,02,52,8.90
2016,04,18,02,53,8.80
2016,04,18,02,54,8.80
2016,04,18,02,55,8.80
2016,04,18,02,56,8.80
2016,04,18,02,57,8.80
2016,04,18,02,58,8.80
2016,04,18,02,59,8.80
2016,04,18,03,00,8.80
2016,04,18,03,01,8.80
2016,04,18,03,02,8.80
2016,04,18,03,03,8.80
2016,04,18,03,06,8.80
2016,04,18,03,07,8.80
2016,04,18,03,08,8.70
2016,04,18,03,09,8.70
2016,04,18,03,10,8.70
2016,04,18,03,11,8.70
2016,04,18,03,12,8.70
2016,04,18,03,13,8.70
2016,04,18,03,14,8.70
2016,04,18,03,15,8.70
2016,04,18,03,16,8.70
2016,04,18,03,17,8.70
2016,04,18,03,18,8.70
2016,04,18,03,19,8.70
2016,04,18,03,20,8.70
2016,04,18,03,21,8.70
2016,04,18,03,22,8.70
2016,04,18,03,23,8.60
2016,04,18,03,24,8.60
2016,04,18,03,25,8.60
2016,04,18,03,26,8.60
2016,04,18,03,27,8.60
2016,04,18,03,28,8.60
2016,04,18,03,29,8.60
2016,04,18,03,30,8.50
2016,04,18,03,31,8.50
2016,04,18,03,32,8.50
2016,04,18,03,33,8.50
2016,04,18,03,34,8.50
2016,04,18,03,35,8.40
2016,04,18,03,36,8.40
2016,04,18,03,37,8.40
2016,04,18,03,38,8.40
2016,04,18,03,39,8.40
2016,04,18,03,40,8.40
2016,04,18,03,41,8.40
2016,04,18,03,42,8.30
2016,04,18,03,43,8.30
2016,04,18,03,44,8.30
2016,04,18,03,45,8.30
2016,04,18,03,46,8.30
2016,04,18,03,47,8.30
2016,04,18,03,48,8.30
2016,04,18,03,49,8.30
2016,04,18,03,50,8.30
2016,04,18,03,51,8.30
2016,04,18,03,52,8.30
2016,04,18,03,53,8.30
2016,04,18,03,54,8.30
2016,04,18,03,55,8.30
2016,04,18,03,56,8.30
2016,04,18,03,57,8.30
2016,04,18,03,58,8.20
2016,04,18,03,59,8.20
2016,04,18,04,00,8.20
2016,04,18,04,01,8.20
2016,04,18,04,02,8.20
2016,04,18,04,03,8.20
2016,04,18,04,04,8.20
2016,04,18,04,05,8.20
2016,04,18,04,06,8.20
2016,04,18,04,07,8.30
2016,04,18,04,08,8.30
2016,04,18,04,09,8.30
2016,04,18,04,10,8.30
2016,04,18,04,11,8.30
2016,04,18,04,12,8.30
2016,04,18,04,13,8.30
2016,04,18,04,14,8.30
2016,04,18,04,15,8.30
2016,04,18,04,16,8.30
2016,04,18,04,17,8.40
2016,04,18,04,18,8.40
2016,04,18,04,19,8.40
2016,04,18,04,20,8.40
2016,04,18,04,21,8.40
2016,04,18,04,22,8.40
2016,04,18,04,23,8.40
2016,04,18,04,24,8.40
2016,04,18,04,25,8.40
2016,04,18,04,26,8.40
2016,04,18,04,27,8.40
2016,04,18,04,28,8.40
2016,04,18,04,29,8.50
2016,04,18,04,30,8.40
2016,04,18,04,31,8.50
2016,04,18,04,32,8.40
2016,04,18,04,33,8.50
2016,04,18,04,34,8.40
2016,04,18,04,35,8.50
2016,04,18,04,36,8.50
2016,04,18,04,37,8.50
2016,04,18,04,38,8.50
2016,04,18,04,39,8.50
2016,04,18,04,40,8.50
2016,04,18,04,41,8.50
2016,04,18,04,42,8.50
2016,04,18,04,43,8.60
2016,04,18,04,44,8.60
2016,04,18,04,45,8.60
2016,04,18,04,46,8.60
2016,04,18,04,47,8.60
2016,04,18,04,48,8.60
2016,04,18,04,49,8.60
2016,04,18,04,50,8.60
2016,04,18,04,51,8.60
2016,04,18,04,52,8.70
2016,04,18,04,53,8.70
2016,04,18,04,54,8.70
2016,04,18,04,55,8.70
2016,04,18,04,56,8.70
2016,04,18,04,57,8.70
2016,04,18,04,58,8.70
2016,04,18,04,59,8.70
2016,04,18,05,00,8.70
2016,04,18,05,01,8.70
2016,04,18,05,02,8.70
2016,04,18,05,03,8.70
2016,04,18,05,04,8.70
2016,04,18,05,05,8.70
2016,04,18,05,06,8.70
2016,04,18,05,07,8.70
2016,04,18,05,08,8.70
2016,04,18,05,09,8.70
2016,04,18,05,10,8.80
2016,04,18,05,11,8.80
2016,04,18,05,12,8.80
2016,04,18,05,13,8.80
2016,04,18,05,14,8.80
2016,04,18,05,15,8.80
2016,04,18,05,16,8.80
2016,04,18,05,17,8.80
2016,04,18,05,18,8.80
2016,04,18,05,19,8.80
2016,04,18,05,20,8.80
2016,04,18,05,21,8.80
2016,04,18,05,22,8.80
2016,04,18,05,23,8.70
2016,04,18,05,24,8.70
2016,04,18,05,25,8.70
2016,04,18,05,26,8.70
2016,04,18,05,27,8.70
2016,04,18,05,28,8.70
2016,04,18,05,29,8.70
2016,04,18,05,30,8.70
2016,04,18,05,31,8.70
2016,04,18,05,32,8.70
2016,04,18,05,33,8.70
2016,04,18,05,34,8.70
2016,04,18,05,35,8.60
2016,04,18,05,36,8.60
2016,04,18,05,37,8.60
2016,04,18,05,38,8.60
2016,04,18,05,39,8.60
2016,04,18,05,40,8.60
2016,04,18,05,41,8.60
2016,04,18,05,42,8.50
2016,04,18,05,43,8.50
2016,04,18,05,44,8.50
2016,04,18,05,45,8.50
2016,04,18,05,46,8.40
2016,04,18,05,47,8.40
2016,04,18,05,48,8.40
2016,04,18,05,49,8.40
2016,04,18,05,50,8.40
2016,04,18,05,51,8.40
2016,04,18,05,52,8.40
2016,04,18,05,53,8.40
2016,04,18,05,54,8.40
2016,04,18,05,55,8.40
2016,04,18,05,56,8.40
2016,04,18,05,57,8.40
2016,04,18,05,58,8.40
2016,04,18,05,59,8.40
2016,04,18,06,00,8.40
2016,04,18,06,01,8.40
2016,04,18,06,02,8.40
2016,04,18,06,03,8.40
2016,04,18,06,04,8.40
2016,04,18,06,05,8.40
2016,04,18,06,06,8.40
2016,04,18,06,07,8.40
2016,04,18,06,08,8.40
2016,04,18,06,09,8.50
2016,04,18,06,10,8.60
2016,04,18,06,11,8.60
2016,04,18,06,12,8.70
2016,04,18,06,13,8.70
2016,04,18,06,14,8.80
2016,04,18,06,15,8.80
2016,04,18,06,16,8.80
2016,04,18,06,17,8.80
2016,04,18,06,18,8.80
2016,04,18,06,19,8.80
2016,04,18,06,20,8.80
2016,04,18,06,21,8.80
2016,04,18,06,22,8.80
2016,04,18,06,23,8.90
2016,04,18,06,24,8.90
2016,04,18,06,25,8.90
2016,04,18,06,26,8.90
2016,04,18,06,27,8.90
2016,04,18,06,28,8.90
2016,04,18,06,29,8.90
2016,04,18,06,30,9.00
2016,04,18,06,31,9.00
2016,04,18,06,32,9.00
2016,04,18,06,33,8.90
2016,04,18,06,34,8.90
2016,04,18,06,35,8.90
2016,04,18,06,36,8.90
2016,04,18,06,37,8.90
2016,04,18,06,38,8.90
2016,04,18,06,39,8.80
2016,04,18,06,40,8.80
2016,04,18,06,41,8.80
2016,04,18,06,42,8.80
2016,04,18,06,43,8.80
2016,04,18,06,44,8.70
2016,04,18,06,45,8.70
2016,04,18,06,46,8.70
2016,04,18,06,47,8.70
2016,04,18,06,48,8.70
2016,04,18,06,49,8.70
2016,04,18,06,50,8.70
2016,04,18,06,51,8.60
2016,04,18,06,52,8.60
2016,04,18,06,53,8.60
2016,04,18,06,54,8.60
2016,04,18,06,55,8.60
2016,04,18,06,56,8.60
2016,04,18,06,57,8.60
2016,04,18,06,58,8.60
2016,04,18,06,59,8.60
2016,04,18,07,00,8.60
2016,04,18,07,01,8.60
2016,04,18,07,02,8.60
2016,04,18,07,03,8.60
2016,04,18,07,04,8.60
2016,04,18,07,05,8.60
2016,04,18,07,06,8.60
2016,04,18,07,07,8.60
2016,04,18,07,08,8.60
2016,04,18,07,09,8.60
2016,04,18,07,10,8.70
2016,04,18,07,11,8.80
2016,04,18,07,12,8.80
2016,04,18,07,13,8.80
2016,04,18,07,14,8.80
2016,04,18,07,15,8.90
2016,04,18,07,16,8.90
2016,04,18,07,17,8.90
2016,04,18,07,18,9.00
2016,04,18,07,19,9.00
2016,04,18,07,20,9.00
2016,04,18,07,21,9.10
2016,04,18,07,22,9.10
2016,04,18,07,23,9.10
2016,04,18,07,24,9.10
2016,04,18,07,25,9.10
2016,04,18,07,26,9.10
2016,04,18,07,27,9.10
2016,04,18,07,28,9.20
2016,04,18,07,29,9.20
2016,04,18,07,30,9.20
2016,04,18,07,31,9.20
2016,04,18,07,32,9.20
2016,04,18,07,33,9.20
2016,04,18,07,34,9.20
2016,04,18,07,35,9.20
2016,04,18,07,36,9.30
2016,04,18,07,37,9.30
2016,04,18,07,38,9.30
2016,04,18,07,39,9.30
2016,04,18,07,40,9.40
2016,04,18,07,41,9.40
2016,04,18,07,42,9.50
2016,04,18,07,43,9.50
2016,04,18,07,44,9.60
2016,04,18,07,45,9.60
2016,04,18,07,46,9.70
2016,04,18,07,47,9.70
2016,04,18,07,48,9.70
2016,04,18,07,49,9.80
2016,04,18,07,50,9.80
2016,04,18,07,51,9.80
2016,04,18,07,52,9.90
2016,04,18,07,53,9.90
2016,04,18,07,54,10.00
2016,04,18,07,55,10.10
2016,04,18,07,56,10.20
2016,04,18,07,57,10.20
2016,04,18,07,58,10.30
2016,04,18,07,59,10.40
2016,04,18,08,00,10.40
2016,04,18,08,01,10.50
2016,04,18,08,02,10.60
2016,04,18,08,03,10.60
2016,04,18,08,04,10.70
2016,04,18,08,05,10.70
2016,04,18,08,06,10.80
2016,04,18,08,07,10.80
2016,04,18,08,08,10.90
2016,04,18,08,09,10.90
2016,04,18,08,10,11.00
2016,04,18,08,11,11.10
2016,04,18,08,12,11.20
2016,04,18,08,13,11.20
2016,04,18,08,14,11.30
2016,04,18,08,15,11.30
2016,04,18,08,16,11.40
2016,04,18,08,17,11.50
2016,04,18,08,18,11.50
2016,04,18,08,19,11.60
2016,04,18,08,20,11.70
2016,04,18,08,21,11.80
2016,04,18,08,22,11.80
2016,04,18,08,23,11.90
2016,04,18,08,24,12.00
2016,04,18,08,25,12.10
2016,04,18,08,26,12.20
2016,04,18,08,27,12.20
2016,04,18,08,28,12.30
2016,04,18,08,29,12.30
2016,04,18,08,30,12.30
2016,04,18,08,31,12.30
2016,04,18,08,32,12.40
2016,04,18,08,33,12.50
2016,04,18,08,34,12.50
2016,04,18,08,35,12.60
2016,04,18,08,36,12.70
2016,04,18,08,37,12.70
2016,04,18,08,38,12.80
2016,04,18,08,39,12.80
2016,04,18,08,40,13.00
2016,04,18,08,41,13.00
2016,04,18,08,42,13.10
2016,04,18,08,43,13.20
2016,04,18,08,44,13.30
2016,04,18,08,45,13.30
2016,04,18,08,46,13.30
2016,04,18,08,47,13.40
2016,04,18,08,48,13.50
2016,04,18,08,49,13.50
2016,04,18,08,50,13.60
2016,04,18,08,51,13.70
2016,04,18,08,52,13.70
2016,04,18,08,53,13.80
2016,04,18,08,54,13.70
2016,04,18,08,55,13.70
2016,04,18,08,56,13.70
2016,04,18,08,57,13.80
2016,04,18,08,58,13.80
2016,04,18,08,59,13.70
2016,04,18,09,00,13.70
2016,04,18,09,01,13.70
2016,04,18,09,02,13.70
2016,04,18,09,03,13.70
2016,04,18,09,04,13.70
2016,04,18,09,05,13.70
2016,04,18,09,06,13.70
2016,04,18,09,07,13.70
2016,04,18,09,08,13.70
2016,04,18,09,09,13.70
2016,04,18,09,10,13.70
2016,04,18,09,11,13.80
2016,04,18,09,12,13.80
2016,04,18,09,13,13.80
2016,04,18,09,14,13.80
2016,04,18,09,15,13.80
2016,04,18,09,16,13.80
2016,04,18,09,17,13.90
2016,04,18,09,18,13.90
2016,04,18,09,19,14.00
2016,04,18,09,20,14.10
2016,04,18,09,21,14.10
2016,04,18,09,22,14.20
2016,04,18,09,23,14.20
2016,04,18,09,24,14.30
2016,04,18,09,25,14.40
2016,04,18,09,26,14.40
2016,04,18,09,27,14.50
2016,04,18,09,28,14.60
2016,04,18,09,29,14.70
2016,04,18,09,30,14.80
2016,04,18,09,31,14.90
2016,04,18,09,32,15.00
2016,04,18,09,33,15.00
2016,04,18,09,34,15.00
2016,04,18,09,35,15.00
2016,04,18,09,36,15.00
2016,04,18,09,37,15.20
2016,04,18,09,38,15.30
2016,04,18,09,39,15.40
2016,04,18,09,40,15.50
2016,04,18,09,41,15.60
2016,04,18,09,42,15.70
2016,04,18,09,43,15.70
2016,04,18,09,44,15.80
2016,04,18,09,45,15.90
2016,04,18,09,46,16.00
2016,04,18,09,47,16.00
2016,04,18,09,48,16.10
2016,04,18,09,49,16.20
2016,04,18,09,50,16.40
2016,04,18,09,51,16.50
2016,04,18,09,52,16.60
2016,04,18,09,53,16.70
2016,04,18,09,54,16.80
2016,04,18,09,55,16.90
2016,04,18,09,56,17.00
2016,04,18,09,57,17.10
2016,04,18,09,58,17.20
2016,04,18,09,59,17.40
2016,04,18,10,00,17.50
2016,04,18,10,01,17.60
2016,04,18,10,02,17.70
2016,04,18,10,03,17.80
2016,04,18,10,04,17.80
2016,04,18,10,05,17.90
2016,04,18,10,06,17.90
2016,04,18,10,07,17.80
2016,04,18,10,08,17.90
2016,04,18,10,09,18.10
2016,04,18,10,10,18.20
2016,04,18,10,11,18.30
2016,04,18,10,12,18.40
2016,04,18,10,13,18.50
2016,04,18,10,14,18.60
2016,04,18,10,15,18.70
2016,04,18,10,16,18.70
2016,04,18,10,17,18.80
2016,04,18,10,18,18.80
2016,04,18,10,19,18.90
2016,04,18,10,20,19.00
2016,04,18,10,21,19.10
2016,04,18,10,22,19.20
2016,04,18,10,23,19.30
2016,04,18,10,24,19.30
2016,04,18,10,25,19.40
2016,04,18,10,26,19.50
2016,04,18,10,27,19.60
2016,04,18,10,28,19.60
2016,04,18,10,29,19.70
2016,04,18,10,30,19.80
2016,04,18,10,31,19.80
2016,04,18,10,32,19.90
2016,04,18,10,33,19.90
2016,04,18,10,34,20.00
2016,04,18,10,35,20.00
2016,04,18,10,36,20.10
2016,04,18,10,37,20.20
2016,04,18,10,38,20.20
2016,04,18,10,39,20.20
2016,04,18,10,40,20.30
2016,04,18,10,41,20.30
2016,04,18,10,42,20.20
2016,04,18,10,43,20.20
2016,04,18,10,44,20.20
2016,04,18,10,45,20.20
2016,04,18,10,46,20.20
2016,04,18,10,47,20.20
2016,04,18,10,48,20.30
2016,04,18,10,49,20.30
2016,04,18,10,50,20.30
2016,04,18,10,51,20.40
2016,04,18,10,52,20.40
2016,04,18,10,53,20.40
2016,04,18,10,54,20.50
2016,04,18,10,55,20.50
2016,04,18,10,56,20.50
2016,04,18,10,57,20.50
2016,04,18,10,58,20.60
2016,04,18,10,59,20.60
2016,04,18,11,00,20.60
2016,04,18,11,01,20.60
2016,04,18,11,02,20.60
2016,04,18,11,03,20.70
2016,04,18,11,04,20.70
2016,04,18,11,05,20.70
2016,04,18,11,06,20.70
2016,04,18,11,07,20.70
2016,04,18,11,08,20.70
2016,04,18,11,09,20.70
2016,04,18,11,10,20.80
2016,04,18,11,11,20.80
2016,04,18,11,12,20.90
2016,04,18,11,13,20.90
2016,04,18,11,14,21.00
2016,04,18,11,15,21.00
2016,04,18,11,16,21.10
2016,04,18,11,17,21.10
2016,04,18,11,18,21.10
2016,04,18,11,19,21.10
2016,04,18,11,20,21.20
2016,04,18,11,21,21.20
2016,04,18,11,22,21.30
2016,04,18,11,23,21.30
2016,04,18,11,24,21.40
2016,04,18,11,25,21.50
2016,04,18,11,26,21.50
2016,04,18,11,27,21.60
2016,04,18,11,28,21.60
2016,04,18,11,29,21.60
2016,04,18,11,30,21.60
2016,04,18,11,31,21.60
2016,04,18,11,32,21.60
2016,04,18,11,33,21.50
2016,04,18,11,34,21.40
2016,04,18,11,35,21.40
2016,04,18,11,36,21.40
2016,04,18,11,37,21.40
2016,04,18,11,38,21.40
2016,04,18,11,39,21.50
2016,04,18,11,40,21.50
2016,04,18,11,41,21.60
2016,04,18,11,42,21.60
2016,04,18,11,43,21.70
2016,04,18,11,44,21.70
2016,04,18,11,45,21.70
2016,04,18,11,46,21.60
2016,04,18,11,47,21.60
2016,04,18,11,48,21.60
2016,04,18,11,49,21.60
2016,04,18,11,50,21.60
2016,04,18,11,51,21.60
2016,04,18,11,52,21.60
2016,04,18,11,53,21.60
2016,04,18,11,54,21.70
2016,04,18,11,55,21.70
2016,04,18,11,56,21.80
2016,04,18,11,57,21.80
2016,04,18,11,58,21.80
2016,04,18,11,59,21.90
2016,04,18,12,00,21.80
2016,04,18,12,01,21.80
2016,04,18,12,02,21.90
2016,04,18,12,03,21.90
2016,04,18,12,04,21.90
2016,04,18,12,05,21.90
2016,04,18,12,06,22.00
2016,04,18,12,07,22.00
2016,04,18,12,08,22.00
2016,04,18,12,09,22.00
2016,04,18,12,10,21.90
2016,04,18,12,11,21.90
2016,04,18,12,12,21.80
2016,04,18,12,13,21.80
2016,04,18,12,14,21.90
2016,04,18,12,15,22.00
2016,04,18,12,16,22.00
2016,04,18,12,17,21.90
2016,04,18,12,18,21.90
2016,04,18,12,19,21.90
2016,04,18,12,20,21.90
2016,04,18,12,21,21.90
2016,04,18,12,22,22.00
2016,04,18,12,23,22.10
2016,04,18,12,24,22.10
2016,04,18,12,25,22.10
2016,04,18,12,26,22.10
2016,04,18,12,27,22.10
2016,04,18,12,28,22.10
2016,04,18,12,29,22.20
2016,04,18,12,30,22.20
2016,04,18,12,31,22.30
2016,04,18,12,32,22.30
2016,04,18,12,33,22.30
2016,04,18,12,34,22.40
2016,04,18,12,35,22.40
2016,04,18,12,36,22.30
2016,04,18,12,37,22.40
2016,04,18,12,38,22.40
2016,04,18,12,39,22.40
2016,04,18,12,40,22.50
2016,04,18,12,41,22.50
2016,04,18,12,42,22.60
2016,04,18,12,43,22.60
2016,04,18,12,44,22.60
2016,04,18,12,45,22.70
2016,04,18,12,46,22.70
2016,04,18,12,47,22.80
2016,04,18,12,48,22.80
2016,04,18,12,49,22.80
2016,04,18,12,50,22.80
2016,04,18,12,51,22.80
2016,04,18,12,52,22.80
2016,04,18,12,53,22.90
2016,04,18,12,54,22.90
2016,04,18,12,55,23.00
2016,04,18,12,56,23.10
2016,04,18,12,57,23.20
2016,04,18,12,58,23.20
2016,04,18,12,59,23.30
2016,04,18,13,00,23.40
2016,04,18,13,01,23.40
2016,04,18,13,02,23.30
2016,04,18,13,03,23.30
2016,04,18,13,04,23.30
2016,04,18,13,05,23.30
2016,04,18,13,06,23.30
2016,04,18,13,07,23.40
2016,04,18,13,08,23.40
2016,04,18,13,09,23.40
2016,04,18,13,10,23.40
2016,04,18,13,11,23.40
2016,04,18,13,12,23.40
2016,04,18,13,13,23.40
2016,04,18,13,14,23.40
2016,04,18,13,15,23.40
2016,04,18,13,16,23.40
2016,04,18,13,17,23.30
2016,04,18,13,18,23.30
2016,04,18,13,19,23.40
2016,04,18,13,20,23.40
2016,04,18,13,21,23.40
2016,04,18,13,22,23.40
2016,04,18,13,23,23.40
2016,04,18,13,24,23.40
2016,04,18,13,25,23.40
2016,04,18,13,26,23.40
2016,04,18,13,27,23.40
2016,04,18,13,28,23.40
2016,04,18,13,29,23.40
2016,04,18,13,30,23.30
2016,04,18,13,31,23.30
2016,04,18,13,32,23.30
2016,04,18,13,33,23.30
2016,04,18,13,34,23.30
2016,04,18,13,35,23.30
2016,04,18,13,36,23.40
2016,04,18,13,37,23.40
2016,04,18,13,38,23.40
2016,04,18,13,39,23.40
2016,04,18,13,40,23.50
2016,04,18,13,41,23.50
2016,04,18,13,42,23.60
2016,04,18,13,43,23.60
2016,04,18,13,44,23.60
2016,04,18,13,45,23.70
2016,04,18,13,46,23.70
2016,04,18,13,47,23.80
2016,04,18,13,48,23.90
2016,04,18,13,49,23.90
2016,04,18,13,50,24.00
2016,04,18,13,51,24.00
2016,04,18,13,52,24.00
2016,04,18,13,53,24.00
2016,04,18,13,54,24.00
2016,04,18,13,55,24.10
2016,04,18,13,56,24.10
2016,04,18,13,57,24.10
2016,04,18,13,58,24.20
2016,04,18,13,59,24.20
2016,04,18,14,00,24.20
2016,04,18,14,01,24.30
2016,04,18,14,02,24.30
2016,04,18,14,03,24.30
2016,04,18,14,04,24.30
2016,04,18,14,05,24.30
2016,04,18,14,06,24.30
2016,04,18,14,07,24.20
2016,04,18,14,08,24.20
2016,04,18,14,09,24.20
2016,04,18,14,10,24.20
2016,04,18,14,11,24.30
2016,04,18,14,12,24.30
2016,04,18,14,13,24.30
2016,04,18,14,14,24.30
2016,04,18,14,15,24.40
2016,04,18,14,16,24.40
2016,04,18,14,17,24.40
2016,04,18,14,18,24.50
2016,04,18,14,19,24.50
2016,04,18,14,20,24.60
2016,04,18,14,21,24.60
2016,04,18,14,22,24.60
2016,04,18,14,23,24.60
2016,04,18,14,24,24.70
2016,04,18,14,25,24.70
2016,04,18,14,26,24.60
2016,04,18,14,27,24.60
2016,04,18,14,28,24.60
2016,04,18,14,29,24.70
2016,04,18,14,30,24.70
2016,04,18,14,31,24.80
2016,04,18,14,32,24.80
2016,04,18,14,33,24.90
2016,04,18,14,34,25.00
2016,04,18,14,35,25.10
2016,04,18,14,36,25.10
2016,04,18,14,37,25.10
2016,04,18,14,38,25.10
2016,04,18,14,39,25.10
2016,04,18,14,40,25.10
2016,04,18,14,41,25.00
2016,04,18,14,42,25.00
2016,04,18,14,43,25.00
2016,04,18,14,44,25.00
2016,04,18,14,45,25.10
2016,04,18,14,46,25.10
2016,04,18,14,47,25.10
2016,04,18,14,48,25.20
2016,04,18,14,49,25.20
2016,04,18,14,50,25.20
2016,04,18,14,51,25.20
2016,04,18,14,52,25.20
2016,04,18,14,53,25.20
2016,04,18,14,54,25.20
2016,04,18,14,55,25.20
2016,04,18,14,56,25.20
2016,04,18,14,57,25.10
2016,04,18,14,58,25.00
2016,04,18,14,59,25.00
2016,04,18,15,00,24.90
2016,04,18,15,01,24.90
2016,04,18,15,02,24.90
2016,04,18,15,03,24.90
2016,04,18,15,04,24.90
2016,04,18,15,05,24.90
2016,04,18,15,06,24.90
2016,04,18,15,07,24.90
2016,04,18,15,08,24.90
2016,04,18,15,09,24.90
2016,04,18,15,10,24.90
2016,04,18,15,11,24.90
2016,04,18,15,12,25.00
2016,04,18,15,13,25.00
2016,04,18,15,14,25.00
2016,04,18,15,15,25.00
2016,04,18,15,16,25.10
2016,04,18,15,17,25.10
2016,04,18,15,18,25.20
2016,04,18,15,19,25.20
2016,04,18,15,20,25.20
2016,04,18,15,21,25.30
2016,04,18,15,22,25.20
2016,04,18,15,23,25.20
2016,04,18,15,24,25.20
2016,04,18,15,25,25.20
2016,04,18,15,26,25.20
2016,04,18,15,27,25.20
2016,04,18,15,28,25.20
2016,04,18,15,29,25.20
2016,04,18,15,30,25.20
2016,04,18,15,31,25.20
2016,04,18,15,32,25.20
2016,04,18,15,33,25.20
2016,04,18,15,34,25.20
2016,04,18,15,35,25.20
2016,04,18,15,36,25.20
2016,04,18,15,37,25.20
2016,04,18,15,38,25.20
2016,04,18,15,39,25.10
2016,04,18,15,40,25.10
2016,04,18,15,41,25.10
2016,04,18,15,42,25.10
2016,04,18,15,43,25.10
2016,04,18,15,44,25.10
2016,04,18,15,45,25.10
2016,04,18,15,46,25.10
2016,04,18,15,47,25.20
2016,04,18,15,48,25.20
2016,04,18,15,49,25.20
2016,04,18,15,50,25.20
2016,04,18,15,51,25.10
2016,04,18,15,52,25.10
2016,04,18,15,53,25.10
2016,04,18,15,54,25.00
2016,04,18,15,55,25.00
2016,04,18,15,56,25.00
2016,04,18,15,57,25.00
2016,04,18,15,58,24.90
2016,04,18,15,59,24.90
2016,04,18,16,00,24.80
2016,04,18,16,01,24.80
2016,04,18,16,02,24.80
2016,04,18,16,03,24.70
2016,04,18,16,04,24.70
2016,04,18,16,05,24.70
2016,04,18,16,06,24.70
2016,04,18,16,07,24.70
2016,04,18,16,08,24.70
2016,04,18,16,09,24.70
2016,04,18,16,10,24.70
2016,04,18,16,11,24.70
2016,04,18,16,12,24.70
2016,04,18,16,13,24.70
2016,04,18,16,14,24.80
2016,04,18,16,15,24.80
2016,04,18,16,16,24.90
2016,04,18,16,17,25.00
2016,04,18,16,18,25.00
2016,04,18,16,19,25.10
2016,04,18,16,20,25.10
2016,04,18,16,21,25.20
2016,04,18,16,22,25.20
2016,04,18,16,23,25.20
2016,04,18,16,24,25.20
2016,04,18,16,25,25.20
2016,04,18,16,26,25.20
2016,04,18,16,27,25.20
2016,04,18,16,28,25.10
2016,04,18,16,29,25.10
2016,04,18,16,30,25.10
2016,04,18,16,31,25.10
2016,04,18,16,32,25.10
2016,04,18,16,33,25.10
2016,04,18,16,34,25.10
2016,04,18,16,35,25.10
2016,04,18,16,36,25.20
2016,04,18,16,37,25.20
2016,04,18,16,38,25.20
2016,04,18,16,39,25.30
2016,04,18,16,40,25.30
2016,04,18,16,41,25.30
2016,04,18,16,42,25.30
2016,04,18,16,43,25.40
2016,04,18,16,44,25.50
2016,04,18,16,45,25.60
2016,04,18,16,46,25.70
2016,04,18,16,47,25.80
2016,04,18,16,48,25.90
2016,04,18,16,49,26.00
2016,04,18,16,50,26.10
2016,04,18,16,51,26.20
2016,04,18,16,52,26.30
2016,04,18,16,53,26.40
2016,04,18,16,54,26.40
2016,04,18,16,55,26.50
2016,04,18,16,56,26.60
2016,04,18,16,57,26.60
2016,04,18,16,58,26.70
2016,04,18,16,59,26.70
2016,04,18,17,00,26.70
2016,04,18,17,01,26.70
2016,04,18,17,02,26.70
2016,04,18,17,03,26.80
2016,04,18,17,04,26.80
2016,04,18,17,05,26.90
2016,04,18,17,06,26.90
2016,04,18,17,07,26.90
2016,04,18,17,08,27.00
2016,04,18,17,09,27.00
2016,04,18,17,10,27.00
2016,04,18,17,11,27.10
2016,04,18,17,12,27.10
2016,04,18,17,13,27.20
2016,04,18,17,14,27.30
2016,04,18,17,15,27.30
2016,04,18,17,16,27.40
2016,04,18,17,17,27.50
2016,04,18,17,18,27.50
2016,04,18,17,19,27.50
2016,04,18,17,20,27.50
2016,04,18,17,21,27.50
2016,04,18,17,22,27.60
2016,04,18,17,23,27.50
2016,04,18,17,24,27.40
2016,04,18,17,25,27.40
2016,04,18,17,26,27.30
2016,04,18,17,27,27.30
2016,04,18,17,28,27.20
2016,04,18,17,29,27.20
2016,04,18,17,30,27.10
2016,04,18,17,31,27.10
2016,04,18,17,32,27.00
2016,04,18,17,33,27.00
2016,04,18,17,34,27.00
2016,04,18,17,35,27.00
2016,04,18,17,36,26.90
2016,04,18,17,37,26.90
2016,04,18,17,38,26.80